{"data":{"norad_id":55160,"intl_designator":"2023-004W","name":"ONEWEB-0619","alt_names":[],"object_type":"PAYLOAD","status":"ACTIVE","operator":null,"country":"UK","launch_date":"2023-01-10","launch_site_code":"AFETR","launch_vehicle":null,"mission":null,"orbit_class":"UNKNOWN","rcs_meters":null,"size_class":null,"mass_kg":null,"dimensions":null,"purposes":["comms"],"wikipedia_slug":null,"has_3d_model":false,"image_url":null,"decayed_at":null,"tle_current":{"epoch":"2026-09-20T04:06:34.614144Z","epoch_age_seconds":50433,"freshness":"FRESH","line1":"1 55160U 23004W   26263.17123396  .00000082  00000+0  17757-3 0  9996","line2":"2 55160  87.9210 346.9959 0002271 101.3505 258.7882 13.17650964180100","mean_motion":13.17650964,"eccentricity":0.0002271,"inclination_deg":87.921,"raan_deg":346.9959,"arg_perigee_deg":101.3505,"mean_anomaly_deg":258.7882,"bstar":0.00017757,"rev_number":18010,"period_min":109.28539039114,"perigee_km":1191.9861703233,"apogee_km":1195.4253012939,"semimajor_km":7571.8427358086,"source":"CELESTRAK","updated_at":"2026-09-20T09:00:44.754396Z"}}}